EW9345 Weather Reports


time (UTC)temp
C
wind
direction
speed
KPH
gust
KPH
rain 1hr
cm
rain 24hr
cm
rain mn
cm
humidity
%
barometer
mb
20260504192734 22 241 0.0 0.0 0.00 0.00 0.00 31 1007.7
20260504192234 22 160 0.0 0.0 0.00 0.00 0.00 32 1007.9
20260504191733 22 148 0.0 0.0 0.00 0.00 0.00 31 1008.1
20260504191530 22 247 0.0 0.0 0.00 0.00 0.00 32 1008.0
20260504190734 22 177 0.0 0.0 0.00 0.00 0.00 31 1008.2
20260504190328 22 172 0.0 0.0 0.00 0.00 0.00 32 1008.3
20260504190305 22 196 0.0 0.0 0.00 0.00 0.00 32 1008.2
20260504185222 22 214 0.0 0.0 0.00 0.00 0.00 32 1008.2
20260504184716 22 164 0.0 0.0 0.00 0.00 0.00 32 1008.3
20260504184207 22 221 0.0 0.0 0.00 0.00 0.00 31 1008.4
20260504183701 22 249 0.0 0.0 0.00 0.00 0.00 33 1008.5
20260504183157 22 238 0.0 0.0 0.00 0.00 0.00 32 1008.5
20260504182658 21 244 0.0 0.0 0.00 0.00 0.00 32 1008.6
20260504182547 22 221 0.0 0.0 0.00 0.00 0.00 32 1008.6
20260504182542 22 155 0.0 0.0 0.00 0.00 0.00 32 1008.6
20260504181158 22 163 0.0 0.0 0.00 0.00 0.00 33 1008.7
20260504180659 21 150 0.0 0.0 0.00 0.00 0.00 33 1008.8
20260504180158 21 153 0.0 0.0 0.00 0.00 0.00 33 1008.8
20260504175658 21 232 0.0 0.0 0.00 0.00 0.00 34 1008.9
20260504175158 21 207 0.0 0.0 0.00 0.00 0.00 32 1009.1
20260504174952 21 219 0.0 0.0 0.00 0.00 0.00 33 1009.2
20260504174202 21 302 0.0 0.0 0.00 0.00 0.00 34 1009.2
20260504173953 21 236 0.0 0.0 0.00 0.00 0.00 35 1009.2
20260504173202 21 276 0.0 0.0 0.00 0.00 0.00 34 1009.2
20260504172701 21 215 0.0 0.0 0.00 0.00 0.00 35 1009.2
20260504172156 21 266 0.0 0.0 0.00 0.00 0.00 34 1009.3
20260504171649 20 211 0.0 0.0 0.00 0.00 0.00 35 1009.4
20260504171144 20 138 0.0 0.0 0.00 0.00 0.00 34 1009.4
20260504170643 20 272 0.0 0.0 0.00 0.00 0.00 34 1009.6
20260504170440 20 311 0.0 0.0 0.00 0.00 0.00 35 1009.7
20260504160130 20 227 0.0 0.0 0.00 0.00 0.00 34 1010.5
20260504151123 18 281 0.0 0.0 0.00 0.00 0.00 36 1011.0
20260504150625 18 167 0.0 0.0 0.00 0.00 0.00 37 1011.1
20260504150423 18 220 0.0 0.0 0.00 0.00 0.00 39 1011.1
20260504141112 17 259 0.0 0.0 0.00 0.00 0.00 43 1011.4
20260504140612 16 113 0.0 0.0 0.00 0.00 0.00 43 1011.4
20260504140112 16 250 0.0 0.0 0.00 0.00 0.00 43 1011.4
20260504130613 14 221 0.0 0.0 0.00 0.00 0.00 50 1012.0
20260504130112 14 216 0.0 0.0 0.00 0.00 0.00 53 1012.0
20260504110553 -17 0.0 0.0 0.00 0.00 0.00 1012.4
20260504081640 10 155 0.0 0.0 0.00 0.00 0.00 49 1011.7
20260504081216 10 179 0.0 0.0 0.00 0.00 0.00 49 1011.7
20260504081200 10 232 0.0 0.0 0.00 0.00 0.00 49 1011.7
20260504080414 10 165 0.0 0.0 0.00 0.00 0.00 49 1011.7
20260504050346 11 225 0.0 0.0 0.00 0.00 0.00 49 1011.2
20260504045846 11 284 0.0 0.0 0.00 0.00 0.00 49 1011.1
20260504045349 11 300 0.0 0.0 0.00 0.00 0.00 49 1011.2
20260504044845 11 258 0.0 0.0 0.00 0.00 0.00 48 1011.2
20260504044346 11 261 0.0 0.0 0.00 0.00 0.00 49 1011.2
20260504043845 11 217 0.0 0.0 0.00 0.00 0.00 48 1011.2
20260504043345 11 301 0.0 0.0 0.00 0.00 0.00 47 1011.1
20260504042846 11 269 0.0 0.0 0.00 0.00 0.00 47 1011.1
20260504042345 11 236 0.0 0.0 0.00 0.00 0.00 46 1011.0
20260504041844 11 190 0.0 0.0 0.00 0.00 0.00 46 1010.9
20260504041346 11 243 0.0 0.0 0.00 0.00 0.00 46 1010.8
20260504040845 11 226 0.0 0.0 0.00 0.00 0.00 46 1010.9
20260504040346 11 236 0.0 0.0 0.00 0.00 0.00 46 1010.9
20260504035846 11 194 0.0 0.0 0.00 0.00 0.00 45 1010.9
20260504035345 11 213 0.0 0.0 0.00 0.00 0.00 45 1010.9
20260504034845 11 269 0.0 0.0 0.00 0.00 0.00 45 1010.9
20260504034345 11 203 0.0 0.0 0.00 0.00 0.00 45 1010.8
20260504034145 11 269 0.0 0.0 0.00 0.00 0.00 44 1010.8
20260504033345 12 264 0.0 0.0 0.00 0.00 0.00 46 1010.8
20260504032845 12 252 0.0 0.0 0.00 0.00 0.00 44 1010.8
20260504032345 12 278 0.0 0.0 0.00 0.00 0.00 45 1010.8
20260504031843 12 278 0.0 0.0 0.00 0.00 0.00 44 1010.7
20260504031341 12 284 0.0 0.0 0.00 0.00 0.00 45 1010.7
20260504030841 12 239 0.0 0.0 0.00 0.00 0.00 43 1010.7
20260504030340 12 138 0.0 0.0 0.00 0.00 0.00 43 1010.7
20260504025844 12 224 0.0 0.0 0.00 0.00 0.00 43 1010.7
20260504025342 12 285 0.0 0.0 0.00 0.00 0.00 43 1010.7
20260504025125 12 298 0.0 0.0 0.00 0.00 0.00 42 1010.6
20260504024327 12 216 0.0 0.0 0.00 0.00 0.00 42 1010.7
20260504023825 12 183 0.0 0.0 0.00 0.00 0.00 42 1010.7
20260504023328 12 219 0.0 0.0 0.00 0.00 0.00 43 1010.7
20260504022826 12 259 0.0 0.0 0.00 0.00 0.00 42 1010.7
20260504022422 12 191 0.0 0.0 0.00 0.00 0.00 41 1010.7
20260504022358 12 216 0.0 0.0 0.00 0.00 0.00 41 1010.7
20260504021322 12 288 0.0 0.0 0.00 0.00 0.00 41 1010.7
20260504020822 12 231 0.0 0.0 0.00 0.00 0.00 41 1010.7
20260504020320 12 225 0.0 0.0 0.00 0.00 0.00 41 1010.7
20260504015819 12 260 0.0 0.0 0.00 0.00 0.00 41 1010.6
20260504015316 12 295 0.0 0.0 0.00 0.00 0.00 41 1010.6
20260504014817 12 226 0.0 0.0 0.00 0.00 0.00 41 1010.6
20260504014312 12 214 0.0 0.0 0.00 0.00 0.00 41 1010.6
20260504013810 12 219 0.0 0.0 0.00 0.00 0.00 40 1010.5
20260504013401 12 219 0.0 0.0 0.00 0.00 0.00 38 1010.5
20260504013339 12 219 0.0 0.0 0.00 0.00 0.00 39 1010.4
20260504012309 12 148 0.0 0.0 0.00 0.00 0.00 37 1010.4
20260504011809 12 214 0.0 0.0 0.00 0.00 0.00 38 1010.4
20260504011309 12 151 0.0 0.0 0.00 0.00 0.00 37 1010.3
20260504010809 12 151 0.0 0.0 0.00 0.00 0.00 37 1010.3
20260504010310 12 183 0.0 0.0 0.00 0.00 0.00 37 1010.1
20260504005809 12 233 0.0 0.0 0.00 0.00 0.00 37 1010.1
20260504005603 12 233 0.0 0.0 0.00 0.00 0.00 37 1010.1
20260504004808 13 233 0.0 0.0 0.00 0.00 0.00 36 1010.0
20260504004310 13 233 0.0 0.0 0.00 0.00 0.00 36 1010.0
20260504003810 13 233 0.0 0.0 0.00 0.00 0.00 35 1010.0
20260504003310 13 233 0.0 0.0 0.00 0.00 0.00 35 1009.9
20260504002809 13 233 0.0 0.0 0.00 0.00 0.00 34 1009.8
20260504002310 14 233 0.0 0.0 0.00 0.00 0.00 34 1009.7
20260504001804 14 233 0.0 0.0 0.00 0.00 0.00 34 1009.6
20260504001304 15 240 0.0 0.0 0.00 0.00 0.00 33 1009.5
20260504000806 15 302 0.0 0.0 0.00 0.00 0.00 34 1009.4
20260504000304 15 287 0.0 0.0 0.00 0.00 0.00 32 1009.4
20260503235805 15 290 0.0 0.0 0.00 0.00 0.00 32 1009.3
20260503235304 15 303 0.0 0.0 0.00 0.00 0.00 29 1009.3
20260503234805 15 307 0.0 0.0 0.00 0.00 0.00 29 1009.2
20260503234359 16 293 0.0 0.0 0.00 0.00 0.00 29 1009.0
20260503234335 16 288 0.0 0.0 0.00 0.00 0.00 30 1009.1
20260503233301 16 264 0.0 0.0 0.00 0.00 0.00 29 1008.9
20260503232802 16 295 0.0 0.0 0.00 0.00 0.00 29 1008.9
20260503232301 16 289 0.0 0.0 0.00 0.00 0.00 28 1008.8
20260503231758 16 302 0.0 0.0 0.00 0.00 0.00 29 1008.9
20260503231258 16 284 0.0 0.0 0.00 0.00 0.00 30 1008.9
20260503231054 16 275 0.0 0.0 0.00 0.00 0.00 28 1008.8
20260503230259 16 285 0.0 0.0 0.00 0.00 0.00 27 1008.8
20260503225759 16 296 0.0 0.0 0.00 0.00 0.00 27 1008.8
20260503225550 16 310 0.0 0.0 0.00 0.00 0.00 27 1008.7
20260503224759 16 284 0.0 0.0 0.00 0.00 0.00 28 1008.7
20260503224257 16 274 0.0 0.0 0.00 0.00 0.00 27 1008.7
20260503223756 16 304 0.0 0.0 0.00 0.00 0.00 26 1008.7
20260503223255 16 277 0.0 1.6 0.00 0.00 0.00 28 1008.7
20260503222754 16 274 0.0 1.6 0.00 0.00 0.00 26 1008.7
20260503222253 16 265 0.0 1.6 0.00 0.00 0.00 26 1008.6
20260503221753 16 311 0.0 1.6 0.00 0.00 0.00 27 1008.7
20260503221252 16 288 0.0 1.6 0.00 0.00 0.00 26 1008.7
20260503220752 16 280 0.0 0.0 0.00 0.00 0.00 25 1008.7
20260503220252 16 304 0.0 0.0 0.00 0.00 0.00 28 1008.7
20260503220049 16 339 0.0 0.0 0.00 0.00 0.00 26 1008.7
20260503215544 16 340 0.0 0.0 0.00 0.00 0.00 25 1008.8
20260503215036 16 319 0.0 0.0 0.00 0.00 0.00 27 1008.8
20260503214233 16 321 0.0 0.0 0.00 0.00 0.00 27 1008.8
20260503213727 16 302 0.0 0.0 0.00 0.00 0.00 26 1008.8
20260503213221 15 253 0.0 0.0 0.00 0.00 0.00 26 1008.8
20260503212711 16 305 0.0 0.0 0.00 0.00 0.00 26 1008.8
20260503212205 16 249 0.0 0.0 0.00 0.00 0.00 27 1008.6
20260503211700 15 290 0.0 0.0 0.00 0.00 0.00 27 1008.7
20260503211149 15 281 0.0 0.0 0.00 0.00 0.00 27 1008.8
20260503210936 15 328 0.0 0.0 0.00 0.00 0.00 28 1008.7
20260503210137 15 305 0.0 0.0 0.00 0.00 0.00 26 1008.6
20260503205627 15 323 0.0 0.0 0.00 0.00 0.00 28 1008.6
20260503205121 15 285 0.0 0.0 0.00 0.00 0.00 27 1008.7
20260503204616 15 290 0.0 0.0 0.00 0.00 0.00 29 1008.6
20260503204105 15 302 0.0 0.0 0.00 0.00 0.00 28 1008.6
20260503203601 15 297 0.0 0.0 0.00 0.00 0.00 29 1008.7
20260503203058 15 295 0.0 0.0 0.00 0.00 0.00 28 1008.8
20260503202554 15 298 0.0 0.0 0.00 0.00 0.00 28 1008.8
20260503202054 15 307 0.0 0.0 0.00 0.00 0.00 28 1008.8
20260503201554 15 277 0.0 0.0 0.00 0.00 0.00 28 1008.7
20260503201056 15 279 0.0 0.0 0.00 0.00 0.00 29 1008.8
20260503200554 15 276 0.0 0.0 0.00 0.00 0.00 31 1008.9
20260503200052 14 307 0.0 0.0 0.00 0.00 0.00 29 1008.9
20260503195552 14 295 0.0 0.0 0.00 0.00 0.00 29 1008.9
20260503195158 14 332 0.0 0.0 0.00 0.00 0.00 29 1009.1
20260503195133 14 286 0.0 0.0 0.00 0.00 0.00 30 1009.0
20260503194053 14 310 0.0 0.0 0.00 0.00 0.00 29 1009.1
20260503193552 14 290 0.0 0.0 0.00 0.00 0.00 30 1009.1